International Skating Union - Official Site

ISU World Cup Nagano
November 18-20, 2016

Draw | Lap Times | Index | World Cup

Referee: Trevis  BOYD  (CAN)
Starter: Takeshi  MUKAI  (JPN)
StartTime: EndTime: Air Temp: Ice Temp: Humidity:
12:32 13:55 15℃ -7℃ 43%
Result 5000m Men Division B
Rankings as of Nov 20 2016 5:52PM
Rank: No.: Name: Nation: Time: Behind: Points:
1 70 Ryosuke  Tsuchiya JPN JPN 6:23.99200m - 19.10 - (19.1)
600m - 48.87 - (29.7)
1000m - 1:18.85 - (29.9)
1400m - 1:48.97 - (30.1)
1800m - 2:19.27 - (30.3)
2200m - 2:49.49 - (30.2)
2600m - 3:19.57 - (30.0)
3000m - 3:49.83 - (30.2)
3400m - 4:20.03 - (30.1)
3800m - 4:50.51 - (30.4)
4200m - 5:21.21 - (30.6)
4600m - 5:52.42 - (31.2)
5000m - 6:23.99 - (31.5)
32
2 124 Danila  Semerikov RUS RUS 6:25.08200m - 19.29 - (19.2)
600m - 50.11 - (30.8)
1000m - 1:20.88 - (30.7)
1400m - 1:51.39 - (30.5)
1800m - 2:21.64 - (30.2)
2200m - 2:51.83 - (30.1)
2600m - 3:22.66 - (30.8)
3000m - 3:53.45 - (30.7)
3400m - 4:23.78 - (30.3)
3800m - 4:53.81 - (30.0)
4200m - 5:23.90 - (30.0)
4600m - 5:54.19 - (30.2)
5000m - 6:25.08 - (30.8)
1.09 27
3 85 Seung-Hoon  Lee KOR KOR 6:25.12200m - 19.39 - (19.3)
600m - 49.65 - (30.2)
1000m - 1:20.11 - (30.4)
1400m - 1:50.73 - (30.6)
1800m - 2:21.22 - (30.4)
2200m - 2:51.88 - (30.6)
2600m - 3:22.41 - (30.5)
3000m - 3:53.03 - (30.6)
3400m - 4:23.71 - (30.6)
3800m - 4:54.30 - (30.5)
4200m - 5:24.87 - (30.5)
4600m - 5:55.26 - (30.3)
5000m - 6:25.12 - (29.8)
1.13 23
4 7 Jordan  Belchos CAN CAN 6:25.52200m - 19.85 - (19.8)
600m - 50.13 - (30.2)
1000m - 1:20.61 - (30.4)
1400m - 1:50.81 - (30.2)
1800m - 2:20.82 - (30.0)
2200m - 2:50.72 - (29.9)
2600m - 3:20.75 - (30.0)
3000m - 3:51.02 - (30.2)
3400m - 4:21.69 - (30.6)
3800m - 4:52.47 - (30.7)
4200m - 5:23.44 - (30.9)
4600m - 5:54.27 - (30.8)
5000m - 6:25.52 - (31.2)
1.53 19
5 105 Sverre Lunde  Pedersen NOR NOR 6:26.78200m - 18.70 - (18.6)
600m - 48.63 - (29.9)
1000m - 1:19.01 - (30.3)
1400m - 1:48.99 - (29.9)
1800m - 2:18.98 - (29.9)
2200m - 2:49.20 - (30.2)
2600m - 3:19.44 - (30.2)
3000m - 3:49.67 - (30.2)
3400m - 4:19.98 - (30.3)
3800m - 4:50.37 - (30.3)
4200m - 5:21.10 - (30.7)
4600m - 5:53.12 - (32.0)
5000m - 6:26.78 - (33.6)
2.79 15
6 54 Michele  Malfatti ITA ITA 6:26.81200m - 19.23 - (19.2)
600m - 49.00 - (29.7)
1000m - 1:19.20 - (30.2)
1400m - 1:49.67 - (30.4)
1800m - 2:19.66 - (29.9)
2200m - 2:49.96 - (30.3)
2600m - 3:20.21 - (30.2)
3000m - 3:50.86 - (30.6)
3400m - 4:21.37 - (30.5)
3800m - 4:52.36 - (30.9)
4200m - 5:23.54 - (31.1)
4600m - 5:55.09 - (31.5)
5000m - 6:26.81 - (31.7)
2.82 11
7 61 Seitaro  Ichinohe JPN JPN 6:28.76200m - 19.01 - (19.0)
600m - 49.48 - (30.4)
1000m - 1:19.72 - (30.2)
1400m - 1:49.50 - (29.7)
1800m - 2:19.50 - (30.0)
2200m - 2:49.64 - (30.1)
2600m - 3:19.92 - (30.2)
3000m - 3:50.15 - (30.2)
3400m - 4:20.74 - (30.5)
3800m - 4:51.63 - (30.8)
4200m - 5:23.05 - (31.4)
4600m - 5:55.22 - (32.1)
5000m - 6:28.76 - (33.5)
4.77 9
8 104 Simen Spieler  Nilsen NOR NOR 6:29.55200m - 19.25 - (19.2)
600m - 49.34 - (30.0)
1000m - 1:19.55 - (30.2)
1400m - 1:49.65 - (30.1)
1800m - 2:20.07 - (30.4)
2200m - 2:50.44 - (30.3)
2600m - 3:21.12 - (30.6)
3000m - 3:51.75 - (30.6)
3400m - 4:22.91 - (31.1)
3800m - 4:54.18 - (31.2)
4200m - 5:26.08 - (31.8)
4600m - 5:57.57 - (31.4)
5000m - 6:29.55 - (31.9)
5.56 7
9 106 Thomas-Henrik  Søfteland NOR NOR 6:30.13200m - 20.55 - (20.5)
600m - 50.86 - (30.3)
1000m - 1:21.32 - (30.4)
1400m - 1:51.75 - (30.4)
1800m - 2:22.26 - (30.5)
2200m - 2:52.96 - (30.7)
2600m - 3:23.64 - (30.6)
3000m - 3:54.30 - (30.6)
3400m - 4:25.01 - (30.7)
3800m - 4:55.77 - (30.7)
4200m - 5:26.74 - (30.9)
4600m - 5:57.99 - (31.2)
5000m - 6:30.13 - (32.1)
6.14 6
10 101 Sindre  Henriksen NOR NOR 6:30.59200m - 19.11 - (19.1)
600m - 49.25 - (30.1)
1000m - 1:19.87 - (30.6)
1400m - 1:50.25 - (30.3)
1800m - 2:20.71 - (30.4)
2200m - 2:51.30 - (30.5)
2600m - 3:21.89 - (30.5)
3000m - 3:52.54 - (30.6)
3400m - 4:23.42 - (30.8)
3800m - 4:54.43 - (31.0)
4200m - 5:25.74 - (31.3)
4600m - 5:57.58 - (31.8)
5000m - 6:30.59 - (33.0)
6.60 5
11 115 Jan  Szymanski POL POL 6:30.63200m - 19.00 - (19.0)
600m - 48.53 - (29.5)
1000m - 1:18.95 - (30.4)
1400m - 1:48.89 - (29.9)
1800m - 2:19.43 - (30.5)
2200m - 2:49.57 - (30.1)
2600m - 3:20.17 - (30.5)
3000m - 3:50.59 - (30.4)
3400m - 4:21.53 - (30.9)
3800m - 4:53.13 - (31.6)
4200m - 5:25.13 - (32.0)
4600m - 5:57.89 - (32.7)
5000m - 6:30.62 - (32.7)
6.64 4
12 108 Reyon  Kay NZL NZL 6:30.69200m - 20.04 - (20.0)
600m - 50.58 - (30.5)
1000m - 1:21.34 - (30.7)
1400m - 1:52.19 - (30.8)
1800m - 2:22.87 - (30.6)
2200m - 2:53.39 - (30.5)
2600m - 3:24.05 - (30.6)
3000m - 3:54.54 - (30.4)
3400m - 4:25.11 - (30.5)
3800m - 4:55.99 - (30.8)
4200m - 5:27.00 - (31.0)
4600m - 5:58.49 - (31.4)
5000m - 6:30.69 - (32.1)
6.70 3
13 6 Vitaly  Mikhailov BLR BLR 6:31.84200m - 19.35 - (19.3)
600m - 49.27 - (29.9)
1000m - 1:19.18 - (29.9)
1400m - 1:49.54 - (30.3)
1800m - 2:19.96 - (30.4)
2200m - 2:50.76 - (30.7)
2600m - 3:21.47 - (30.7)
3000m - 3:52.74 - (31.2)
3400m - 4:24.33 - (31.5)
3800m - 4:56.02 - (31.6)
4200m - 5:27.84 - (31.8)
4600m - 5:59.75 - (31.9)
5000m - 6:31.84 - (32.0)
7.85 2
14 64 Shota  Nakamura JPN JPN 6:32.29200m - 18.76 - (18.7)
600m - 48.87 - (30.1)
1000m - 1:19.82 - (30.9)
1400m - 1:50.65 - (30.8)
1800m - 2:21.65 - (31.0)
2200m - 2:52.26 - (30.6)
2600m - 3:23.26 - (31.0)
3000m - 3:54.37 - (31.1)
3400m - 4:25.71 - (31.3)
3800m - 4:57.14 - (31.4)
4200m - 5:28.75 - (31.6)
4600m - 6:00.38 - (31.6)
5000m - 6:32.29 - (31.9)
8.30 1
15 83 Min Seok  Kim KOR KOR 6:33.44200m - 19.64 - (19.6)
600m - 49.79 - (30.1)
1000m - 1:20.21 - (30.4)
1400m - 1:50.69 - (30.4)
1800m - 2:21.34 - (30.6)
2200m - 2:52.05 - (30.7)
2600m - 3:22.86 - (30.8)
3000m - 3:53.88 - (31.0)
3400m - 4:25.21 - (31.3)
3800m - 4:56.78 - (31.5)
4200m - 5:28.95 - (32.1)
4600m - 6:01.06 - (32.1)
5000m - 6:33.44 - (32.3)
9.45 0
16 35 Sebastian  Druszkiewicz CZE CZE 6:34.43200m - 19.64 - (19.6)
600m - 50.38 - (30.7)
1000m - 1:21.23 - (30.8)
1400m - 1:52.02 - (30.7)
1800m - 2:22.68 - (30.6)
2200m - 2:53.62 - (30.9)
2600m - 3:24.18 - (30.5)
3000m - 3:55.00 - (30.8)
3400m - 4:26.09 - (31.0)
3800m - 4:57.69 - (31.6)
4200m - 5:29.34 - (31.6)
4600m - 6:01.73 - (32.3)
5000m - 6:34.43 - (32.6)
10.44 0
17 129 Livio  Wenger SUI SUI 6:34.48200m - 19.37 - (19.3)
600m - 50.27 - (30.9)
1000m - 1:21.05 - (30.7)
1400m - 1:51.86 - (30.8)
1800m - 2:22.62 - (30.7)
2200m - 2:53.58 - (30.9)
2600m - 3:24.45 - (30.8)
3000m - 3:55.33 - (30.8)
3400m - 4:26.25 - (30.9)
3800m - 4:57.63 - (31.3)
4200m - 5:29.32 - (31.6)
4600m - 6:01.29 - (31.9)
5000m - 6:34.48 - (33.1)
10.49 0
18 4 Linus  Heidegger AUT AUT 6:34.50200m - 19.57 - (19.5)
600m - 50.21 - (30.6)
1000m - 1:20.85 - (30.6)
1400m - 1:51.16 - (30.3)
1800m - 2:21.52 - (30.3)
2200m - 2:52.28 - (30.7)
2600m - 3:23.28 - (31.0)
3000m - 3:54.30 - (31.0)
3400m - 4:25.63 - (31.3)
3800m - 4:57.34 - (31.7)
4200m - 5:29.43 - (32.0)
4600m - 6:01.72 - (32.2)
5000m - 6:34.50 - (32.7)
10.51 0
19 66 Masahito  Obayashi JPN JPN 6:35.13200m - 19.27 - (19.2)
600m - 49.86 - (30.5)
1000m - 1:20.88 - (31.0)
1400m - 1:51.66 - (30.7)
1800m - 2:22.76 - (31.1)
2200m - 2:54.23 - (31.4)
2600m - 3:25.51 - (31.2)
3000m - 3:56.79 - (31.2)
3400m - 4:28.00 - (31.2)
3800m - 4:59.79 - (31.7)
4200m - 5:31.77 - (31.9)
4600m - 6:03.75 - (31.9)
5000m - 6:35.13 - (31.3)
11.14 0
20 74 Dmitry  Babenko KAZ KAZ 6:37.52200m - 20.16 - (20.1)
600m - 51.47 - (31.3)
1000m - 1:22.80 - (31.3)
1400m - 1:54.21 - (31.4)
1800m - 2:25.59 - (31.3)
2200m - 2:57.20 - (31.6)
2600m - 3:28.61 - (31.4)
3000m - 4:00.09 - (31.4)
3400m - 4:31.62 - (31.5)
3800m - 5:03.13 - (31.5)
4200m - 5:34.69 - (31.5)
4600m - 6:06.35 - (31.6)
5000m - 6:37.52 - (31.1)
13.53 0
21 112 Roland  Cieslak POL POL 6:40.13200m - 19.98 - (19.9)
600m - 51.15 - (31.1)
1000m - 1:22.05 - (30.8)
1400m - 1:53.44 - (31.3)
1800m - 2:24.68 - (31.2)
2200m - 2:56.13 - (31.4)
2600m - 3:27.94 - (31.8)
3000m - 4:00.51 - (32.5)
3400m - 4:32.61 - (32.1)
3800m - 5:04.08 - (31.4)
4200m - 5:36.17 - (32.0)
4600m - 6:07.99 - (31.8)
5000m - 6:40.13 - (32.1)
16.14 0
22 134 KC  Boutiette USA USA 6:42.22200m - 19.83 - (19.8)
600m - 50.33 - (30.5)
1000m - 1:21.23 - (30.9)
1400m - 1:52.42 - (31.1)
1800m - 2:23.95 - (31.5)
2200m - 2:55.90 - (31.9)
2600m - 3:28.27 - (32.3)
3000m - 4:00.92 - (32.6)
3400m - 4:33.48 - (32.5)
3800m - 5:06.13 - (32.6)
4200m - 5:37.85 - (31.7)
4600m - 6:09.85 - (32.0)
5000m - 6:42.22 - (32.3)
18.23 0
23 1 Joshua  Capponi AUS AUS 6:44.63200m - 19.80 - (19.8)
600m - 51.13 - (31.3)
1000m - 1:22.08 - (30.9)
1400m - 1:53.21 - (31.1)
1800m - 2:24.23 - (31.0)
2200m - 2:55.71 - (31.4)
2600m - 3:27.54 - (31.8)
3000m - 3:59.42 - (31.8)
3400m - 4:31.69 - (32.2)
3800m - 5:04.35 - (32.6)
4200m - 5:37.61 - (33.2)
4600m - 6:11.10 - (33.4)
5000m - 6:44.63 - (33.5)
20.64 0
24 107 Shane  Dobbin NZL NZL 6:44.72200m - 19.75 - (19.7)
600m - 50.44 - (30.6)
1000m - 1:22.14 - (31.7)
1400m - 1:54.10 - (31.9)
1800m - 2:26.48 - (32.3)
2200m - 2:58.83 - (32.3)
2600m - 3:31.11 - (32.2)
3000m - 4:03.42 - (32.3)
3400m - 4:35.49 - (32.0)
3800m - 5:07.65 - (32.1)
4200m - 5:39.98 - (32.3)
4600m - 6:12.35 - (32.3)
5000m - 6:44.72 - (32.3)
20.73 0
25 110 Marcin  Bachanek POL POL 6:45.34200m - 19.46 - (19.4)
600m - 51.19 - (31.7)
1000m - 1:23.24 - (32.0)
1400m - 1:54.95 - (31.7)
1800m - 2:26.78 - (31.8)
2200m - 2:58.66 - (31.8)
2600m - 3:30.43 - (31.7)
3000m - 4:02.20 - (31.7)
3400m - 4:34.16 - (31.9)
3800m - 5:06.47 - (32.3)
4200m - 5:39.43 - (32.9)
4600m - 6:12.44 - (33.0)
5000m - 6:45.34 - (32.9)
21.35 0
26 30 Jiafan  Zhu CHN CHN 6:47.53200m - 20.19 - (20.1)
600m - 51.61 - (31.4)
1000m - 1:22.84 - (31.2)
1400m - 1:54.56 - (31.7)
1800m - 2:26.28 - (31.7)
2200m - 2:58.67 - (32.3)
2600m - 3:30.64 - (31.9)
3000m - 4:03.30 - (32.6)
3400m - 4:36.13 - (32.8)
3800m - 5:09.15 - (33.0)
4200m - 5:41.64 - (32.4)
4600m - 6:14.48 - (32.8)
5000m - 6:47.53 - (33.0)
23.54 0
27 26 Shiwei  Wang CHN CHN 6:51.05200m - 19.78 - (19.7)
600m - 51.28 - (31.5)
1000m - 1:23.27 - (31.9)
1400m - 1:54.76 - (31.4)
1800m - 2:26.96 - (32.2)
2200m - 2:59.04 - (32.0)
2600m - 3:31.59 - (32.5)
3000m - 4:04.81 - (33.2)
3400m - 4:38.28 - (33.4)
3800m - 5:11.79 - (33.5)
4200m - 5:45.50 - (33.7)
4600m - 6:18.57 - (33.0)
5000m - 6:51.05 - (32.4)
27.06 0
28 36 Stefan  Due Schmidt DEN DEN DNF200m - 18.99 - (18.9)
600m - 49.93 - (30.9)
0
29 37 Viktor-Hald  Thorup DEN DEN DQ200m - 20.27 - (20.2)
600m - 50.59 - (30.3)
1000m - 1:20.49 - (29.8)
1400m - 1:50.65 - (30.1)
1800m - 2:20.79 - (30.1)
2200m - 2:50.86 - (30.0)
2600m - 3:21.06 - (30.2)
3000m - 3:51.32 - (30.2)
3400m - 4:21.67 - (30.3)
3800m - 4:52.26 - (30.5)
4200m - 5:23.26 - (31.0)
4600m - 5:54.38 - (31.1)
5000m - 6:25.69 - (31.3)
0